星链-36888(STARLINK-36888)

导读

STARLINK-36888(NORAD编号68004)是SpaceX星链(Starlink)卫星互联网星座中的一员,属于近地轨道宽带通信卫星。 作为SpaceX大规模星链组网的一部分,该卫星原运行于约550公里高度的近地轨道,根据SpaceX 2026年星链轨道调整计划,STARLINK-36888将在2026年内将轨道高度降至480公里。降轨后,若卫星发生故障,可更快再入大气层焚毁,降低碰撞风险,减少太空碎片,缓解近地轨道拥挤,规避凯斯勒效应风险,保障星座运营安全。

基本信息
目录编号:
68004
目录名称:
STARLINK-36888
国际标识:
2026-039U
轨道中心:
EARTH
卫星名称:
星链-36888
卫星全名:
星链-36888(STARLINK-36888)
卫星状态:
在轨 (已飞行198 天)
发射日期:
2026-02-27 UTC
国别 :
美国 (US)
星等 :
--
该卫星已列入 空间交会检测服务 Space Conjunction Data Service (SCDS) ,当前飞行风险评估等级: 无高风险
轨道信息
数据来源 国际轨道数据 AOE轨道数据
星历时间 2026-09-12T20:38:30+0800
20小时前
查看轨道信息
2026-09-12T03:00:00+0800
1天前
查看轨道信息
半长轴 6861.154km 6861.141km
偏心率 0.0001484 0.0001753
轨道倾角 42.999° 43.004°
近地点辐角 274.152° 286.942°
升交点赤经 74.126° 78.281°
平近点角 85.916° 346.052°
近地点 481.998km 481.801km
远地点 484.036km 484.207km
周期 94.266分钟 94.266分钟
每日圈数 15.275908 15.275951
详细信息
固有亮度:
5
最大亮度:
2.5
卫星平台:
Starlink V1.0
覆盖范围:
全球
运营商:
太空探索技术公司
运营商所在国:
美国
制造商(研发单位):
太空探索技术公司
制造商所在国:
美国
使用方式:
暂无
卫星简介
Starlink 计划是 SpaceX 推出的全球卫星互联网项目,通过发射低轨道卫星,为全球尤其是偏远地区提供高速、低延迟的互联网服务。自 2019 年起,Starlink 已部署数千颗卫星,旨在缩小全球数字鸿沟,推动互联网普及。该项目还为军事、航空等行业提供通信支持,带来广泛经济效益。
2D轨道图
3D轨道图
轨道高度分析图
轨道倾角分析图
轨道综合分析图
查看轨道综合分析图
与全量物体交会距离演化趋势
与全量物体交会风险概率演化趋势